Location: Newark
(52.3500°N, 175.9667°E)
Time: 06:20:33
(UTC+00:00)

S-56A Canister/Altair - Pass Details

Date: 23 April 2021
Orbit: 631 x 2501 km, 38.9° (Epoch: 12 May)

Event Time Altitude Azimuth Distance (km) Brightness Sun altitude
Rises 12:07:44 0° 243° (WSW) 4,542 11.2 -24.9°
Enters shadow 12:08:14 - 242° (WSW) 4,373 11.1 -24.9°
Reaches altitude 10° 12:11:47 10° 232° (SW) 3,216 - -24.9°
Maximum altitude 12:17:34 24° 182° (S) 1,903 - -24.9°
Drops below altitude 10° 12:22:00 10° 129° (SE) 2,398 - -24.9°
Sets 12:24:33 0° 115° (ESE) 3,164 - -24.9°
